Weather History for Eureka, NV

Change the Weather History Date:

Tuesday, August 20, 2013

  Actual Average Record
Temperature  
Mean Temperature 71 °F 66 °F  
Max Temperature 87 °F 86 °F 97 °F (2009)
Min Temperature 55 °F 47 °F 33 °F (1980)
Degree Days  
Heating Degree Days 0 1  
Month to date heating degree days 0 13  
Since 1 June heating degree days 81 186  
Since 1 July heating degree days 1 26  
Cooling Degree Days 6 3  
Month to date cooling degree days 113 81  
Year to date cooling degree days 480 256  
Since 1 June cooling degree days 479 253  
Growing Degree Days 20 (Base 50)    
Moisture  
Dew Point 50 °F    
Average Humidity 52    
Maximum Humidity 83    
Minimum Humidity 20    
Precipitation  
Precipitation 0.00 in 0.02 in 0.30 in (1990)
Month to date precipitation 0.00 0.37  
Year to date precipitation 4.81 6.08  
Sea Level Pressure  
Sea Level Pressure 29.96 in    
Wind  
Wind Speed 5 mph (WSW)    
Max Wind Speed 25 mph    
Max Gust Speed 33 mph    
T = Trace of Precipitation, MM = Missing Value Source: NWS Daily Summary

Daily Weather History Graph

Daily Weather History Graph

Search for Another Location

Airport:

Trip Planner

Search our weather history database for the weather conditions in past years. The results will help you decide how hot, cold, wet, or windy it might be!

Date:

Astronomy

Aug. 20, 2013 Rise Set
Actual Time 6:01 AM PDT 7:32 PM PDT
Civil Twilight 5:32 AM PDT 8:00 PM PDT
Nautical Twilight 4:58 AM PDT 8:34 PM PDT
Astronomical Twilight 4:22 AM PDT 9:10 PM PDT
Moon 7:07 PM PDT (8/20) 5:36 AM PDT (8/20)
Length of Visible Light 14h 27m
Length of Day
13h 31m
Full, 100% of the Moon is Illuminated
Aug 20
Full
Aug 20
Full
Aug 28
Last Quarter
Sep 5
New
Sep 12
First Quarter

Hourly Weather History & Observations

Time (PDT) Temp. Dew Point Humidity Pressure Visibility Wind Dir Wind Speed Gust Speed Precip Events Conditions
12:00 AM - - N/A% - - North - - N/A   Unknown
12:53 AM 70.0 °F 48.9 °F 47% 29.93 in - South 9.2 mph - N/A   Unknown
1:53 AM 66.9 °F 50.0 °F 54% 29.91 in - Variable 3.5 mph - N/A   Unknown
2:53 AM 64.9 °F 51.1 °F 61% 29.90 in - ENE 5.8 mph - N/A   Unknown
3:53 AM 63.0 °F 50.0 °F 63% 29.89 in - Calm Calm - N/A   Unknown
4:53 AM 63.0 °F 48.9 °F 60% 29.90 in - South 4.6 mph - N/A   Unknown
5:53 AM 60.1 °F 46.9 °F 62% 29.91 in - South 4.6 mph - N/A   Unknown
6:53 AM 63.0 °F 48.9 °F 60% 29.94 in - SSW 4.6 mph - N/A   Unknown
7:53 AM 66.0 °F 50.0 °F 56% 29.95 in - Calm Calm - N/A   Unknown
8:53 AM 70.0 °F 48.0 °F 46% 29.95 in - WSW 5.8 mph - N/A   Unknown
9:53 AM 75.9 °F 46.0 °F 35% 29.94 in - Variable 3.5 mph - N/A   Unknown
10:53 AM 81.0 °F 45.0 °F 28% 29.91 in - Variable 5.8 mph - N/A   Unknown
11:53 AM 82.0 °F 45.0 °F 27% 29.88 in - WSW 4.6 mph - N/A   Unknown
12:53 PM 84.0 °F 39.9 °F 21% 29.86 in - West 9.2 mph 17.3 mph N/A   Unknown
2:45 PM 72.0 °F 51.1 °F 48% 30.17 in - West 13.8 mph 31.1 mph N/A   Unknown
2:53 PM 72.0 °F 51.1 °F 48% 29.93 in - WSW 11.5 mph 21.9 mph N/A   Unknown
3:53 PM 73.0 °F 51.1 °F 46% 29.94 in - SSE 6.9 mph - N/A   Unknown
4:53 PM 70.0 °F 59.0 °F 68% 29.98 in - NW 6.9 mph - N/A   Unknown
5:53 PM 68.0 °F 55.0 °F 63% 29.99 in - North 10.4 mph - N/A   Unknown
6:53 PM 64.9 °F 54.0 °F 68% 29.99 in - NW 9.2 mph - N/A   Unknown
7:53 PM 63.0 °F 54.0 °F 72% 30.01 in - Calm Calm - N/A   Unknown
8:53 PM 60.1 °F 53.1 °F 78% 30.04 in - NNW 3.5 mph - N/A   Unknown
9:53 PM 59.0 °F 52.0 °F 78% 30.03 in - South 3.5 mph - N/A   Unknown
10:53 PM 55.9 °F 50.0 °F 80% 30.01 in - Variable 3.5 mph - N/A   Unknown
11:53 PM 55.9 °F 48.9 °F 77% 30.00 in - Calm Calm - N/A   Unknown